Regional Weather Roundup
Issued by NWS

Home | Current Version | Previous Version | Graphics & Text | Print | Product List | Glossary On
Versions: 1 2 3 4 5 6 7 8 9 10 11 12 13 14 15 16 17 18 19 20 21 22 23 24 25 26 27 28 29 30 31 32 33 34 35 36 37 38 39 40 41 42 43 44 45 46 47 48 49 50
000
ASUS45 KTFX 301404
RWRMT
MONTANA HOURLY WEATHER ROUNDUP
NATIONAL WEATHER SERVICE GREAT FALLS MT
804 AM MDT WED JUL 30 2014

NOTE: "FAIR" INDICATES FEW OR NO CLOUDS BELOW 12000 FEET WITH NO
SIGNIFICANT WEATHER AND/OR OBSTRUCTIONS TO VISIBILITY.

* THESE STATIONS ARE NOT UNDER NWS QUALITY CONTROL. THEY DO NOT
   REPORT WEATHER SUCH AS PRECIPITATION OR FOG.

MTZ001>007-043-301500-
WEST OF THE DIVIDE
CITY           SKY/WX    TMP DP  RH WIND       PRES   REMARKS
KALISPELL      SUNNY     66  52  61 N5        30.13R
MISSOULA       SUNNY     63  43  48 CALM      30.17R
BUTTE          PTCLDY    57  43  60 CALM      30.31S
MULLAN PASS    SUNNY     70  36  29 W5        30.30R
* LINCOLN      N/A       46  44  93 SW1        N/A
* LOOKOUT PASS N/A       60  45  58 SE2        N/A
* POLSON       N/A       62  48  60 N/A        N/A
* RONAN APT    SUNNY     57  52  83 N/A        N/A
* SEELEY LAKE  N/A       45  41  86 N/A        N/A
* THOMP F APT  SUNNY     54  44  69 N3G8       N/A
* YAAK HILL    N/A       56  49  77 N/A        N/A
$$

MTZ008-052>055-301500-
SOUTHWEST MONTANA
CITY           SKY/WX    TMP DP  RH WIND       PRES   REMARKS
BOZEMAN        PTCLDY    61  48  62 CALM      30.27R
DILLON         PTCLDY    57  48  72 SW7       30.30R
W YELLOWSTONE  FOG       46  46 100 CALM      30.42R VSB M1/4
* THREE FORKS  PTCLDY    55  36  49 N/A        N/A
* BOULDER HILL N/A       60  41  50 S9         N/A
* MONIDA PASS  N/A       52  48  86 W2         N/A
* RAYNOLDS PAS N/A       51  36  57 S4         N/A
* WHITEHALL    N/A       56  47  72 N5         N/A
* WISE RIVER   N/A       47  42  83 W3         N/A
$$

MTZ009>010-012-014-046-048-049-054-301500-
EAST SLOPES AND CENTRAL MONTANA
CITY           SKY/WX    TMP DP  RH WIND       PRES   REMARKS
CUT BANK       PTCLDY    63  48  58 CALM      30.18R
GREAT FALLS    SUNNY     73  48  41 S3        30.18R
HELENA         SUNNY     64  46  52 CALM      30.22R
MALMSTROM AFB  SUNNY     70  48  46 S3        30.19R
* CONRAD       SUNNY     55  52  90 N/A        N/A
* DEARBORN     N/A       59  48  67 SW1        N/A
* EAST GLACIER N/A       59  44  58 NW5        N/A
* MONARCH      N/A       58  45  62 S10        N/A
* ROGERS PASS  N/A       65  44  47 SE4        N/A
* SAINT MARY   N/A       45  43  93 SE2        N/A
* SWEET GRASS  N/A       67  42  40 S13        N/A
$$

MTZ011-013-016-021-035-040-045-047-050-051-301500-
NORTH CENTRAL MONTANA
CITY           SKY/WX    TMP DP  RH WIND       PRES   REMARKS
HAVRE          SUNNY     64  48  56 W5        30.13R
LEWISTOWN      SUNNY     68  46  45 E6        30.25R
* CHESTER      N/A       67  45  45 S1         N/A
* DENTON       N/A       70  53  55 SE4        N/A
* JUDITH GAP   N/A       63  52  68 SE1        N/A
* LOMA         N/A       70  43  38 NE7        N/A
$$

MTZ017>020-022>027-061-062-301500-
NORTHEAST MONTANA
CITY           SKY/WX    TMP DP  RH WIND       PRES   REMARKS
GLASGOW        PTCLDY    66  54  65 E12       30.18S
GLENDIVE       PTCLDY    64  54  70 CALM      30.22S
JORDAN         SUNNY     64  45  50 CALM      30.20S
SIDNEY         PTCLDY    64  57  78 CALM      30.21S
WOLF POINT     PTCLDY    64  55  73 E5        30.20S
* BEAVER HILL  N/A       65  56  73 N/A        N/A
* CIRCLE       N/A       60  53  78 N/A        N/A
* LINDSAY DVD  N/A       70  56  61 N/A        N/A
$$

MTZ028>042-056>058-301500-
SOUTHCENTRAL AND SOUTHEAST MONTANA
CITY           SKY/WX    TMP DP  RH WIND       PRES   REMARKS
BAKER          SUNNY     64  55  73 N3        30.23S
BILLINGS       PTCLDY    64  54  70 SW12      30.25S
LIVINGSTON     PTCLDY    59  46  62 NW3       30.29S
MILES CITY     SUNNY     66  52  61 E3        30.21S
* LAUREL APT   SUNNY     64  54  70 S6         N/A
* ROUNDUP APT  PTCLDY    63  43  48 N/A        N/A
* ALZADA       N/A       62  55  78 W4         N/A
* HYSHAM       N/A       69  43  39 W6         N/A
* LAME DEER    N/A       69  44  41 S2         N/A
* REED POINT   N/A       60  51  72 W5         N/A
* ROSCOE HILL  N/A       68  37  32 S4         N/A
$$

REGIONAL REPORTS...DAKOTAS
CITY           SKY/WX    TMP DP  RH WIND       PRES   REMARKS
WILLISTON      SUNNY     63  55  75 CALM      30.20R
DICKINSON      SUNNY     64  57  78 CALM      30.19R
CROSBY         N/A       61  59  93 NW3       30.21S
TIOGA          SUNNY     59  59 100 CALM      30.22S
WATFORD CITY   SUNNY     59  57  93 CALM      30.18S
BISMARCK       SUNNY     64  55  73 E5        30.17F
GRAND FORKS    SUNNY     66  57  73 NW3       30.12S
FARGO          SUNNY     66  55  68 N5        30.13S
BUFFALO SD     SUNNY     64  55  73 CALM      30.14S
RAPID CITY     SUNNY     70  57  64 NW5       30.21R
$$

REGIONAL REPORTS...WYOMING/IDAHO/WASHINGTON
CITY           SKY/WX    TMP DP  RH WIND       PRES   REMARKS
GILLETTE       PTCLDY    64  54  70 W7        30.27S
SHERIDAN       PTCLDY    61  50  67 CALM      30.28R
YELLOWSTONE LA PTSUNNY   46  45  96 CALM      30.49R
SALMON         PTSUNNY   59  54  84 CALM      30.24R
MULLAN PASS    SUNNY     70  36  29 W5        30.30S
SAND POINT     SUNNY     61  52  72 CALM      30.07S
SPOKANE        PTCLDY    70  39  32 SE5       30.06R

$$




USA.gov is the U.S. government's official web portal to all federal, state and local government web resources and services.